Data supplied by UK-AIR on 29/3/2017
All Data GMT hour ending 
Status: R =Ratified P=Provisional,P*=As supplied
,,Sheffield Tinsley,,,,,,,,,,,,,,,,,,,,,,,
Date,time,"Nitric oxide",status,unit,"Nitrogen dioxide",status,unit,"Nitrogen oxides as nitrogen dioxide",status,unit
 
01-01-2016,01:00,1.71629,R,ugm-3,15.27195,R,ugm-3,17.90355,R,ugm-3
01-01-2016,02:00,1.60902,R,ugm-3,19.54958,R,ugm-3,22.01670,R,ugm-3
01-01-2016,03:00,1.54478,R,ugm-3,18.56273,R,ugm-3,20.93136,R,ugm-3
01-01-2016,04:00,2.12384,R,ugm-3,20.43937,R,ugm-3,23.69588,R,ugm-3
01-01-2016,05:00,5.02007,R,ugm-3,24.78552,R,ugm-3,32.48286,R,ugm-3
01-01-2016,06:00,8.30234,R,ugm-3,27.35497,R,ugm-3,40.08504,R,ugm-3
01-01-2016,07:00,3.41137,R,ugm-3,25.17902,R,ugm-3,30.40971,R,ugm-3
01-01-2016,08:00,4.89129,R,ugm-3,28.93278,R,ugm-3,36.43265,R,ugm-3
01-01-2016,09:00,11.71339,R,ugm-3,29.72790,R,ugm-3,47.68819,R,ugm-3
01-01-2016,10:00,19.24397,R,ugm-3,32.99110,R,ugm-3,62.49811,R,ugm-3
01-01-2016,11:00,23.16985,R,ugm-3,35.66000,R,ugm-3,71.18660,R,ugm-3
01-01-2016,12:00,11.13434,R,ugm-3,29.52996,R,ugm-3,46.60237,R,ugm-3
01-01-2016,13:00,8.30296,R,ugm-3,27.65093,R,ugm-3,40.38196,R,ugm-3
01-01-2016,14:00,3.66862,R,ugm-3,20.93423,R,ugm-3,26.55937,R,ugm-3
01-01-2016,15:00,3.08894,R,ugm-3,19.84840,R,ugm-3,24.58471,R,ugm-3
01-01-2016,16:00,2.89623,R,ugm-3,19.55101,R,ugm-3,23.99183,R,ugm-3
01-01-2016,17:00,1.99506,R,ugm-3,15.20629,R,ugm-3,18.26533,R,ugm-3
01-01-2016,18:00,1.35176,R,ugm-3,10.66362,R,ugm-3,12.73629,R,ugm-3
01-01-2016,19:00,1.35176,R,ugm-3,8.78842,R,ugm-3,10.86109,R,ugm-3
01-01-2016,20:00,1.54478,R,ugm-3,8.59095,R,ugm-3,10.95958,R,ugm-3
01-01-2016,21:00,1.22298,R,ugm-3,7.20821,R,ugm-3,9.08342,R,ugm-3
01-01-2016,22:00,1.09451,R,ugm-3,5.82548,R,ugm-3,7.50369,R,ugm-3
01-01-2016,23:00,1.02965,R,ugm-3,4.64164,R,ugm-3,6.22041,R,ugm-3
01-01-2016,24:00,1.02996,R,ugm-3,3.45637,R,ugm-3,5.03561,R,ugm-3
02-01-2016,01:00,0.69267,R,ugm-3,2.65646,R,ugm-3,3.71854,R,ugm-3
02-01-2016,02:00,0.51888,R,ugm-3,3.48697,R,ugm-3,4.28257,R,ugm-3
02-01-2016,03:00,0.45402,R,ugm-3,2.78938,R,ugm-3,3.48553,R,ugm-3
02-01-2016,04:00,0.38916,R,ugm-3,2.49008,R,ugm-3,3.08678,R,ugm-3
02-01-2016,05:00,0.51888,R,ugm-3,2.19173,R,ugm-3,2.98733,R,ugm-3
02-01-2016,06:00,0.51888,R,ugm-3,2.68993,R,ugm-3,3.48553,R,ugm-3
02-01-2016,07:00,0.77925,R,ugm-3,3.38656,R,ugm-3,4.58139,R,ugm-3
02-01-2016,08:00,1.16872,R,ugm-3,5.08008,R,ugm-3,6.87209,R,ugm-3
02-01-2016,09:00,1.81763,R,ugm-3,6.67463,R,ugm-3,9.46162,R,ugm-3
02-01-2016,10:00,2.40230,R,ugm-3,9.16422,R,ugm-3,12.84770,R,ugm-3
02-01-2016,11:00,3.50616,R,ugm-3,12.25195,R,ugm-3,17.62799,R,ugm-3
02-01-2016,12:00,4.28510,R,ugm-3,13.64712,R,ugm-3,20.21752,R,ugm-3
02-01-2016,13:00,4.67426,R,ugm-3,15.93878,R,ugm-3,23.10587,R,ugm-3
02-01-2016,14:00,5.06373,R,ugm-3,16.33753,R,ugm-3,24.10180,R,ugm-3
02-01-2016,15:00,4.28448,R,ugm-3,16.13768,R,ugm-3,22.70711,R,ugm-3
02-01-2016,16:00,2.98635,R,ugm-3,14.14437,R,ugm-3,18.72338,R,ugm-3
02-01-2016,17:00,2.85663,R,ugm-3,11.65430,R,ugm-3,16.03440,R,ugm-3
02-01-2016,18:00,3.18124,R,ugm-3,14.04444,R,ugm-3,18.92228,R,ugm-3
02-01-2016,19:00,3.57071,R,ugm-3,16.73390,R,ugm-3,22.20891,R,ugm-3
02-01-2016,20:00,3.83015,R,ugm-3,19.32438,R,ugm-3,25.19719,R,ugm-3
02-01-2016,21:00,4.21993,R,ugm-3,19.82211,R,ugm-3,26.29257,R,ugm-3
02-01-2016,22:00,3.70043,R,ugm-3,20.81804,R,ugm-3,26.49195,R,ugm-3
02-01-2016,23:00,3.57071,R,ugm-3,25.69778,R,ugm-3,31.17279,R,ugm-3
02-01-2016,24:00,2.46716,R,ugm-3,25.09869,R,ugm-3,28.88162,R,ugm-3
03-01-2016,01:00,1.92084,R,ugm-3,21.16373,R,ugm-3,24.10898,R,ugm-3
03-01-2016,02:00,5.63156,R,ugm-3,32.35042,R,ugm-3,40.98535,R,ugm-3
03-01-2016,03:00,8.64379,R,ugm-3,36.77212,R,ugm-3,50.02574,R,ugm-3
03-01-2016,04:00,10.73925,R,ugm-3,35.46827,R,ugm-3,51.93489,R,ugm-3
03-01-2016,05:00,1.96450,R,ugm-3,26.01908,R,ugm-3,29.03127,R,ugm-3
03-01-2016,06:00,4.51834,R,ugm-3,21.29999,R,ugm-3,28.22802,R,ugm-3
03-01-2016,07:00,1.70257,R,ugm-3,13.16087,R,ugm-3,15.77143,R,ugm-3
03-01-2016,08:00,1.50612,R,ugm-3,13.76378,R,ugm-3,16.07313,R,ugm-3
03-01-2016,09:00,1.89901,R,ugm-3,14.46711,R,ugm-3,17.37889,R,ugm-3
03-01-2016,10:00,2.94675,R,ugm-3,26.32126,R,ugm-3,30.83954,R,ugm-3
03-01-2016,11:00,2.48836,R,ugm-3,20.49435,R,ugm-3,24.30979,R,ugm-3
03-01-2016,12:00,2.09546,R,ugm-3,17.78243,R,ugm-3,20.99543,R,ugm-3
03-01-2016,13:00,2.68481,R,ugm-3,18.18453,R,ugm-3,22.30118,R,ugm-3
03-01-2016,14:00,2.94675,R,ugm-3,16.27585,R,ugm-3,20.79413,R,ugm-3
03-01-2016,15:00,2.35740,R,ugm-3,11.25219,R,ugm-3,14.86682,R,ugm-3
03-01-2016,16:00,1.70257,R,ugm-3,12.15633,R,ugm-3,14.76689,R,ugm-3
03-01-2016,17:00,5.17318,R,ugm-3,23.20914,R,ugm-3,31.14124,R,ugm-3
03-01-2016,18:00,7.53057,R,ugm-3,29.33823,R,ugm-3,40.88495,R,ugm-3
03-01-2016,19:00,4.84576,R,ugm-3,26.82473,R,ugm-3,34.25479,R,ugm-3
03-01-2016,20:00,3.73255,R,ugm-3,28.43123,R,ugm-3,34.15438,R,ugm-3
03-01-2016,21:00,1.37515,R,ugm-3,22.80417,R,ugm-3,24.91270,R,ugm-3
03-01-2016,22:00,1.76805,R,ugm-3,25.71787,R,ugm-3,28.42883,R,ugm-3
03-01-2016,23:00,2.29191,R,ugm-3,26.32078,R,ugm-3,29.83500,R,ugm-3
03-01-2016,24:00,4.05996,R,ugm-3,28.33082,R,ugm-3,34.55601,R,ugm-3
04-01-2016,01:00,4.13896,R,ugm-3,29.85668,R,ugm-3,36.20299,R,ugm-3
04-01-2016,02:00,1.25478,R,ugm-3,25.12738,R,ugm-3,27.05136,R,ugm-3
04-01-2016,03:00,1.32089,R,ugm-3,25.83596,R,ugm-3,27.86130,R,ugm-3
04-01-2016,04:00,2.11355,R,ugm-3,27.55865,R,ugm-3,30.79938,R,ugm-3
04-01-2016,05:00,5.41547,R,ugm-3,32.93182,R,ugm-3,41.23541,R,ugm-3
04-01-2016,06:00,14.59591,R,ugm-3,44.08217,R,ugm-3,66.46224,R,ugm-3
04-01-2016,07:00,22.78568,R,ugm-3,46.62053,R,ugm-3,81.55808,R,ugm-3
04-01-2016,08:00,21.53058,R,ugm-3,49.05180,R,ugm-3,82.06490,R,ugm-3
04-01-2016,09:00,25.16272,R,ugm-3,49.05515,R,ugm-3,87.63744,R,ugm-3
04-01-2016,10:00,18.16225,R,ugm-3,43.37550,R,ugm-3,71.22389,R,ugm-3
04-01-2016,11:00,16.04870,R,ugm-3,39.52420,R,ugm-3,64.13186,R,ugm-3
04-01-2016,12:00,13.86935,R,ugm-3,36.28060,R,ugm-3,57.54665,R,ugm-3
04-01-2016,13:00,12.21824,R,ugm-3,35.26602,R,ugm-3,54.00039,R,ugm-3
04-01-2016,14:00,10.56713,R,ugm-3,34.35376,R,ugm-3,50.55646,R,ugm-3
04-01-2016,15:00,16.77525,R,ugm-3,43.78047,R,ugm-3,69.50216,R,ugm-3
04-01-2016,16:00,14.79391,R,ugm-3,45.09627,R,ugm-3,67.77996,R,ugm-3
04-01-2016,17:00,15.91648,R,ugm-3,49.65615,R,ugm-3,74.06108,R,ugm-3
04-01-2016,18:00,15.45467,R,ugm-3,50.77018,R,ugm-3,74.46701,R,ugm-3
04-01-2016,19:00,13.14280,R,ugm-3,48.64061,R,ugm-3,68.79263,R,ugm-3
04-01-2016,20:00,7.92503,R,ugm-3,45.09149,R,ugm-3,57.24304,R,ugm-3
04-01-2016,21:00,6.14202,R,ugm-3,41.54333,R,ugm-3,50.96095,R,ugm-3
04-01-2016,22:00,3.17033,R,ugm-3,32.01764,R,ugm-3,36.87874,R,ugm-3
04-01-2016,23:00,1.65111,R,ugm-3,22.79700,R,ugm-3,25.32867,R,ugm-3
04-01-2016,24:00,1.12257,R,ugm-3,19.96028,R,ugm-3,21.68153,R,ugm-3
05-01-2016,01:00,0.79910,R,ugm-3,18.79159,R,ugm-3,20.01686,R,ugm-3
05-01-2016,02:00,0.73279,R,ugm-3,20.32366,R,ugm-3,21.44725,R,ugm-3
05-01-2016,03:00,0.53260,R,ugm-3,18.38295,R,ugm-3,19.19959,R,ugm-3
05-01-2016,04:00,0.73279,R,ugm-3,16.54456,R,ugm-3,17.66815,R,ugm-3
05-01-2016,05:00,0.99878,R,ugm-3,16.85152,R,ugm-3,18.38295,R,ugm-3
05-01-2016,06:00,2.33089,R,ugm-3,24.30644,R,ugm-3,27.88043,R,ugm-3
05-01-2016,07:00,16.65146,R,ugm-3,43.71067,R,ugm-3,69.24254,R,ugm-3
05-01-2016,08:00,22.24622,R,ugm-3,47.79577,R,ugm-3,81.90616,R,ugm-3
05-01-2016,09:00,25.37694,R,ugm-3,47.79577,R,ugm-3,86.70653,R,ugm-3
05-01-2016,10:00,14.05395,R,ugm-3,40.74868,R,ugm-3,62.29778,R,ugm-3
05-01-2016,11:00,16.51831,R,ugm-3,40.33988,R,ugm-3,65.66760,R,ugm-3
05-01-2016,12:00,17.91684,R,ugm-3,36.15294,R,ugm-3,63.62505,R,ugm-3
05-01-2016,13:00,10.45705,R,ugm-3,33.29376,R,ugm-3,49.32768,R,ugm-3
05-01-2016,14:00,11.78948,R,ugm-3,33.90576,R,ugm-3,51.98271,R,ugm-3
05-01-2016,15:00,13.32085,R,ugm-3,37.68581,R,ugm-3,58.11083,R,ugm-3
05-01-2016,16:00,14.12068,R,ugm-3,41.87180,R,ugm-3,63.52321,R,ugm-3
05-01-2016,17:00,21.64720,R,ugm-3,49.83784,R,ugm-3,83.02975,R,ugm-3
05-01-2016,18:00,30.70510,R,ugm-3,54.02621,R,ugm-3,101.10670,R,ugm-3
05-01-2016,19:00,56.48180,R,ugm-3,61.99178,R,ugm-3,148.59599,R,ugm-3
05-01-2016,20:00,42.42753,R,ugm-3,58.51963,R,ugm-3,123.57428,R,ugm-3
05-01-2016,21:00,40.76270,R,ugm-3,57.49788,R,ugm-3,119.99981,R,ugm-3
05-01-2016,22:00,35.16794,R,ugm-3,52.49334,R,ugm-3,106.41676,R,ugm-3
05-01-2016,23:00,32.30382,R,ugm-3,52.69750,R,ugm-3,102.22934,R,ugm-3
05-01-2016,24:00,9.72426,R,ugm-3,48.30688,R,ugm-3,63.21721,R,ugm-3
06-01-2016,01:00,5.01539,R,ugm-3,42.98025,R,ugm-3,50.67041,R,ugm-3
06-01-2016,02:00,12.49296,R,ugm-3,43.77043,R,ugm-3,62.92603,R,ugm-3
06-01-2016,03:00,5.77656,R,ugm-3,42.73959,R,ugm-3,51.59686,R,ugm-3
06-01-2016,04:00,12.49327,R,ugm-3,41.91626,R,ugm-3,61.07234,R,ugm-3
06-01-2016,05:00,15.38139,R,ugm-3,39.65043,R,ugm-3,63.23490,R,ugm-3
06-01-2016,06:00,5.91096,R,ugm-3,32.95572,R,ugm-3,42.01906,R,ugm-3
06-01-2016,07:00,25.65790,R,ugm-3,45.31478,R,ugm-3,84.65633,R,ugm-3
06-01-2016,08:00,31.29975,R,ugm-3,43.46108,R,ugm-3,91.45336,R,ugm-3
06-01-2016,09:00,40.90458,R,ugm-3,47.06567,R,ugm-3,109.78515,R,ugm-3
06-01-2016,10:00,41.64361,R,ugm-3,47.99275,R,ugm-3,111.84539,R,ugm-3
06-01-2016,11:00,16.99322,R,ugm-3,42.94662,R,ugm-3,69.00252,R,ugm-3
06-01-2016,12:00,25.92638,R,ugm-3,53.14168,R,ugm-3,92.89491,R,ugm-3
06-01-2016,13:00,26.79980,R,ugm-3,52.52394,R,ugm-3,93.61640,R,ugm-3
06-01-2016,14:00,20.95620,R,ugm-3,49.53758,R,ugm-3,81.66997,R,ugm-3
06-01-2016,15:00,13.16463,R,ugm-3,50.25859,R,ugm-3,70.44407,R,ugm-3
06-01-2016,16:00,36.40463,R,ugm-3,66.32454,R,ugm-3,122.14420,R,ugm-3
06-01-2016,17:00,34.32227,R,ugm-3,68.69318,R,ugm-3,121.31992,R,ugm-3
06-01-2016,18:00,31.50150,R,ugm-3,64.98532,R,ugm-3,113.28694,R,ugm-3
06-01-2016,19:00,32.77749,R,ugm-3,63.95543,R,ugm-3,114.21354,R,ugm-3
06-01-2016,20:00,14.50797,R,ugm-3,54.99585,R,ugm-3,77.24109,R,ugm-3
06-01-2016,21:00,5.70920,R,ugm-3,36.86965,R,ugm-3,45.62364,R,ugm-3
06-01-2016,22:00,2.88812,R,ugm-3,31.10299,R,ugm-3,35.53138,R,ugm-3
06-01-2016,23:00,1.81357,R,ugm-3,28.21846,R,ugm-3,30.99923,R,ugm-3
06-01-2016,24:00,2.14941,R,ugm-3,33.05900,R,ugm-3,36.35471,R,ugm-3
07-01-2016,01:00,3.25088,R,ugm-3,45.69345,R,ugm-3,50.67806,R,ugm-3
07-01-2016,02:00,2.64147,R,ugm-3,46.10894,R,ugm-3,50.15914,R,ugm-3
07-01-2016,03:00,3.18311,R,ugm-3,48.18592,R,ugm-3,53.06662,R,ugm-3
07-01-2016,04:00,1.49021,R,ugm-3,30.84241,R,ugm-3,33.12737,R,ugm-3
07-01-2016,05:00,1.76119,R,ugm-3,17.55053,R,ugm-3,20.25098,R,ugm-3
07-01-2016,06:00,3.52206,R,ugm-3,22.43076,R,ugm-3,27.83118,R,ugm-3
07-01-2016,07:00,3.86071,R,ugm-3,27.20818,R,ugm-3,33.12785,R,ugm-3
07-01-2016,08:00,6.36653,R,ugm-3,31.15510,R,ugm-3,40.91698,R,ugm-3
07-01-2016,09:00,9.82062,R,ugm-3,44.23995,R,ugm-3,59.29802,R,ugm-3
07-01-2016,10:00,24.72086,R,ugm-3,57.53230,R,ugm-3,95.43710,R,ugm-3
07-01-2016,11:00,85.06680,R,ugm-3,78.30205,R,ugm-3,208.73599,R,ugm-3
07-01-2016,12:00,18.69329,R,ugm-3,41.74653,R,ugm-3,70.40917,R,ugm-3
07-01-2016,13:00,8.66936,R,ugm-3,30.32317,R,ugm-3,43.61600,R,ugm-3
07-01-2016,14:00,9.95595,R,ugm-3,33.64709,R,ugm-3,48.91267,R,ugm-3
07-01-2016,15:00,11.58118,R,ugm-3,34.58278,R,ugm-3,52.34034,R,ugm-3
07-01-2016,16:00,12.39442,R,ugm-3,35.30810,R,ugm-3,54.31261,R,ugm-3
07-01-2016,17:00,13.54537,R,ugm-3,36.65928,R,ugm-3,57.42855,R,ugm-3
07-01-2016,18:00,8.94002,R,ugm-3,31.25886,R,ugm-3,44.96670,R,ugm-3
07-01-2016,19:00,8.26305,R,ugm-3,30.32412,R,ugm-3,42.99396,R,ugm-3
07-01-2016,20:00,8.19539,R,ugm-3,32.29639,R,ugm-3,44.86247,R,ugm-3
07-01-2016,21:00,5.07994,R,ugm-3,25.54622,R,ugm-3,33.33535,R,ugm-3
07-01-2016,22:00,3.65708,R,ugm-3,20.87446,R,ugm-3,26.48191,R,ugm-3
07-01-2016,23:00,3.31844,R,ugm-3,21.49746,R,ugm-3,26.58566,R,ugm-3
07-01-2016,24:00,2.37018,R,ugm-3,16.61676,R,ugm-3,20.25098,R,ugm-3
08-01-2016,01:00,1.91211,R,ugm-3,13.95424,R,ugm-3,16.88610,R,ugm-3
08-01-2016,02:00,4.64370,R,ugm-3,26.79030,R,ugm-3,33.91054,R,ugm-3
08-01-2016,03:00,3.96080,R,ugm-3,18.31314,R,ugm-3,24.38629,R,ugm-3
08-01-2016,04:00,4.16567,R,ugm-3,17.47499,R,ugm-3,23.86226,R,ugm-3
08-01-2016,05:00,6.48752,R,ugm-3,25.32389,R,ugm-3,35.27128,R,ugm-3
08-01-2016,06:00,21.44296,R,ugm-3,47.39653,R,ugm-3,80.27528,R,ugm-3
08-01-2016,07:00,57.49991,R,ugm-3,65.89662,R,ugm-3,154.06192,R,ugm-3
08-01-2016,08:00,30.59377,R,ugm-3,56.91457,R,ugm-3,103.82437,R,ugm-3
08-01-2016,09:00,20.62348,R,ugm-3,52.52586,R,ugm-3,84.14809,R,ugm-3
08-01-2016,10:00,22.39901,R,ugm-3,53.88517,R,ugm-3,88.22984,R,ugm-3
08-01-2016,11:00,24.37941,R,ugm-3,51.79098,R,ugm-3,89.17223,R,ugm-3
08-01-2016,12:00,25.33547,R,ugm-3,49.69631,R,ugm-3,88.54349,R,ugm-3
08-01-2016,13:00,17.27729,R,ugm-3,42.89929,R,ugm-3,69.39076,R,ugm-3
08-01-2016,14:00,17.00413,R,ugm-3,42.27151,R,ugm-3,68.34414,R,ugm-3
08-01-2016,15:00,24.78915,R,ugm-3,53.56960,R,ugm-3,91.57911,R,ugm-3
08-01-2016,16:00,29.97917,R,ugm-3,55.76372,R,ugm-3,101.73113,R,ugm-3
08-01-2016,17:00,26.15495,R,ugm-3,62.15051,R,ugm-3,102.25420,R,ugm-3
08-01-2016,18:00,18.30163,R,ugm-3,53.04988,R,ugm-3,81.11199,R,ugm-3
08-01-2016,19:00,15.09202,R,ugm-3,49.18042,R,ugm-3,72.32119,R,ugm-3
08-01-2016,20:00,35.64721,R,ugm-3,64.34176,R,ugm-3,119.00005,R,ugm-3
08-01-2016,21:00,22.26243,R,ugm-3,54.93178,R,ugm-3,89.06704,R,ugm-3
08-01-2016,22:00,21.16980,R,ugm-3,56.71136,R,ugm-3,89.17127,R,ugm-3
08-01-2016,23:00,16.11636,R,ugm-3,55.66857,R,ugm-3,80.37998,R,ugm-3
08-01-2016,24:00,10.72148,R,ugm-3,53.89329,R,ugm-3,70.33267,R,ugm-3
09-01-2016,01:00,6.60986,R,ugm-3,50.36441,R,ugm-3,60.49939,R,ugm-3
09-01-2016,02:00,4.33780,R,ugm-3,42.83809,R,ugm-3,49.48928,R,ugm-3
09-01-2016,03:00,1.65236,R,ugm-3,26.06307,R,ugm-3,28.59666,R,ugm-3
09-01-2016,04:00,2.34087,R,ugm-3,22.15823,R,ugm-3,25.74751,R,ugm-3
09-01-2016,05:00,2.61621,R,ugm-3,20.89167,R,ugm-3,24.90314,R,ugm-3
09-01-2016,06:00,1.03245,R,ugm-3,15.08915,R,ugm-3,16.67222,R,ugm-3
09-01-2016,07:00,2.68481,R,ugm-3,25.95741,R,ugm-3,30.07406,R,ugm-3
09-01-2016,08:00,3.64898,R,ugm-3,30.59904,R,ugm-3,36.19406,R,ugm-3
09-01-2016,09:00,4.13106,R,ugm-3,33.34253,R,ugm-3,39.67673,R,ugm-3
09-01-2016,10:00,6.74727,R,ugm-3,35.76758,R,ugm-3,46.11324,R,ugm-3
09-01-2016,11:00,7.43578,R,ugm-3,30.38532,R,ugm-3,41.78669,R,ugm-3
09-01-2016,12:00,6.19628,R,ugm-3,29.85938,R,ugm-3,39.36021,R,ugm-3
09-01-2016,13:00,4.75065,R,ugm-3,31.23208,R,ugm-3,38.51632,R,ugm-3
09-01-2016,14:00,3.64929,R,ugm-3,32.18116,R,ugm-3,37.77666,R,ugm-3
09-01-2016,15:00,3.09829,R,ugm-3,32.92034,R,ugm-3,37.67099,R,ugm-3
09-01-2016,16:00,3.58006,R,ugm-3,33.76519,R,ugm-3,39.25454,R,ugm-3
09-01-2016,17:00,2.40978,R,ugm-3,25.00689,R,ugm-3,28.70184,R,ugm-3
09-01-2016,18:00,2.06553,R,ugm-3,21.84218,R,ugm-3,25.00928,R,ugm-3
09-01-2016,19:00,1.51485,R,ugm-3,16.77645,R,ugm-3,19.09918,R,ugm-3
09-01-2016,20:00,1.51485,R,ugm-3,13.08341,R,ugm-3,15.40614,R,ugm-3
09-01-2016,21:00,1.99662,R,ugm-3,14.87782,R,ugm-3,17.93925,R,ugm-3
09-01-2016,22:00,1.85910,R,ugm-3,12.55556,R,ugm-3,15.40614,R,ugm-3
09-01-2016,23:00,1.72127,R,ugm-3,12.44990,R,ugm-3,15.08915,R,ugm-3
09-01-2016,24:00,0.68820,R,ugm-3,7.91393,R,ugm-3,8.96915,R,ugm-3
10-01-2016,01:00,0.55505,R,ugm-3,6.66698,R,ugm-3,7.51804,R,ugm-3
10-01-2016,02:00,0.34737,R,ugm-3,6.06310,R,ugm-3,6.59573,R,ugm-3
10-01-2016,03:00,0.55536,R,ugm-3,4.78699,R,ugm-3,5.63853,R,ugm-3
10-01-2016,04:00,0.48582,R,ugm-3,4.25531,R,ugm-3,5.00023,R,ugm-3
10-01-2016,05:00,0.90211,R,ugm-3,4.04207,R,ugm-3,5.42528,R,ugm-3
10-01-2016,06:00,0.97196,R,ugm-3,4.14773,R,ugm-3,5.63805,R,ugm-3
10-01-2016,07:00,1.59686,R,ugm-3,6.59430,R,ugm-3,9.04278,R,ugm-3
10-01-2016,08:00,2.22113,R,ugm-3,7.97704,R,ugm-3,11.38272,R,ugm-3
10-01-2016,09:00,2.77649,R,ugm-3,10.42313,R,ugm-3,14.68035,R,ugm-3
10-01-2016,10:00,3.60969,R,ugm-3,11.37985,R,ugm-3,16.91463,R,ugm-3
10-01-2016,11:00,4.99731,R,ugm-3,13.61413,R,ugm-3,21.27656,R,ugm-3
10-01-2016,12:00,6.31664,R,ugm-3,15.10158,R,ugm-3,24.78696,R,ugm-3
10-01-2016,13:00,5.96927,R,ugm-3,15.42240,R,ugm-3,24.57515,R,ugm-3
10-01-2016,14:00,7.35782,R,ugm-3,20.31410,R,ugm-3,31.59593,R,ugm-3
10-01-2016,15:00,6.80215,R,ugm-3,23.08101,R,ugm-3,33.51083,R,ugm-3
10-01-2016,16:00,8.53746,R,ugm-3,28.29161,R,ugm-3,41.38220,R,ugm-3
10-01-2016,17:00,9.09282,R,ugm-3,30.10036,R,ugm-3,44.04248,R,ugm-3
10-01-2016,18:00,6.03880,R,ugm-3,22.33657,R,ugm-3,31.59593,R,ugm-3
10-01-2016,19:00,4.65025,R,ugm-3,19.89143,R,ugm-3,27.02171,R,ugm-3
10-01-2016,20:00,1.80453,R,ugm-3,16.59476,R,ugm-3,19.36167,R,ugm-3
10-01-2016,21:00,1.94361,R,ugm-3,22.23233,R,ugm-3,25.21249,R,ugm-3
10-01-2016,22:00,1.87438,R,ugm-3,13.40232,R,ugm-3,16.27633,R,ugm-3
10-01-2016,23:00,0.97165,R,ugm-3,18.29737,R,ugm-3,19.78720,R,ugm-3
10-01-2016,24:00,1.45778,R,ugm-3,21.80728,R,ugm-3,24.04252,R,ugm-3
11-01-2016,01:00,1.95826,R,ugm-3,22.15249,R,ugm-3,25.15511,R,ugm-3
11-01-2016,02:00,0.97913,R,ugm-3,17.79390,R,ugm-3,19.29521,R,ugm-3
11-01-2016,03:00,4.54610,R,ugm-3,28.72575,R,ugm-3,35.69633,R,ugm-3
11-01-2016,04:00,2.72753,R,ugm-3,25.83262,R,ugm-3,30.01478,R,ugm-3
11-01-2016,05:00,10.49135,R,ugm-3,39.86941,R,ugm-3,55.95593,R,ugm-3
11-01-2016,06:00,33.29262,R,ugm-3,46.71425,R,ugm-3,97.76222,R,ugm-3
11-01-2016,07:00,83.23171,R,ugm-3,51.82493,R,ugm-3,179.44509,R,ugm-3
11-01-2016,08:00,98.05898,R,ugm-3,62.21363,R,ugm-3,212.56864,R,ugm-3
11-01-2016,09:00,101.97613,R,ugm-3,61.56768,R,ugm-3,217.92890,R,ugm-3
11-01-2016,10:00,31.68360,R,ugm-3,50.36091,R,ugm-3,98.94175,R,ugm-3
11-01-2016,11:00,22.80127,R,ugm-3,50.04439,R,ugm-3,85.00584,R,ugm-3
11-01-2016,12:00,38.95786,R,ugm-3,57.96644,R,ugm-3,117.70099,R,ugm-3
11-01-2016,13:00,40.21701,R,ugm-3,57.53613,R,ugm-3,119.20134,R,ugm-3
11-01-2016,14:00,41.19614,R,ugm-3,59.67956,R,ugm-3,122.84609,R,ugm-3
11-01-2016,15:00,49.16950,R,ugm-3,67.39220,R,ugm-3,142.78438,R,ugm-3
11-01-2016,16:00,47.07123,R,ugm-3,75.43330,R,ugm-3,147.60818,R,ugm-3
11-01-2016,17:00,87.98735,R,ugm-3,89.98456,R,ugm-3,224.89661,R,ugm-3
11-01-2016,18:00,102.95526,R,ugm-3,85.57864,R,ugm-3,243.44117,R,ugm-3
11-01-2016,19:00,59.17098,R,ugm-3,70.70895,R,ugm-3,161.43652,R,ugm-3
11-01-2016,20:00,31.54391,R,ugm-3,62.36663,R,ugm-3,110.73327,R,ugm-3
11-01-2016,21:00,33.85235,R,ugm-3,63.32909,R,ugm-3,115.23530,R,ugm-3
11-01-2016,22:00,19.51401,R,ugm-3,49.40370,R,ugm-3,79.32476,R,ugm-3
11-01-2016,23:00,17.41543,R,ugm-3,48.44123,R,ugm-3,75.14452,R,ugm-3
11-01-2016,24:00,16.64615,R,ugm-3,45.33199,R,ugm-3,70.85573,R,ugm-3
12-01-2016,01:00,7.33205,R,ugm-3,32.98871,R,ugm-3,44.23103,R,ugm-3
12-01-2016,02:00,2.53826,R,ugm-3,11.99233,R,ugm-3,15.88427,R,ugm-3
12-01-2016,03:00,2.82015,R,ugm-3,12.53261,R,ugm-3,16.85678,R,ugm-3
12-01-2016,04:00,3.87754,R,ugm-3,20.42024,R,ugm-3,26.36573,R,ugm-3
12-01-2016,05:00,8.38996,R,ugm-3,21.82163,R,ugm-3,34.68606,R,ugm-3
12-01-2016,06:00,23.47793,R,ugm-3,42.88208,R,ugm-3,78.88106,R,ugm-3
12-01-2016,07:00,31.86789,R,ugm-3,48.38721,R,ugm-3,97.25063,R,ugm-3
12-01-2016,08:00,45.96862,R,ugm-3,60.15578,R,ugm-3,130.64001,R,ugm-3
12-01-2016,09:00,36.59142,R,ugm-3,50.76158,R,ugm-3,106.86763,R,ugm-3
12-01-2016,10:00,26.57996,R,ugm-3,40.71904,R,ugm-3,81.47441,R,ugm-3
12-01-2016,11:00,22.49038,R,ugm-3,37.91292,R,ugm-3,72.39769,R,ugm-3
12-01-2016,12:00,17.20307,R,ugm-3,38.56413,R,ugm-3,64.94181,R,ugm-3
12-01-2016,13:00,18.68331,R,ugm-3,39.42810,R,ugm-3,68.07544,R,ugm-3
12-01-2016,14:00,13.88931,R,ugm-3,33.48788,R,ugm-3,54.78452,R,ugm-3
12-01-2016,15:00,13.25475,R,ugm-3,37.05421,R,ugm-3,57.37787,R,ugm-3
12-01-2016,16:00,13.60742,R,ugm-3,40.51153,R,ugm-3,61.37595,R,ugm-3
12-01-2016,17:00,14.10073,R,ugm-3,44.61767,R,ugm-3,66.23848,R,ugm-3
12-01-2016,18:00,13.67758,R,ugm-3,43.10536,R,ugm-3,64.07736,R,ugm-3
12-01-2016,19:00,9.09500,R,ugm-3,34.67984,R,ugm-3,48.62531,R,ugm-3
12-01-2016,20:00,6.13391,R,ugm-3,28.09032,R,ugm-3,37.49552,R,ugm-3
12-01-2016,21:00,6.34533,R,ugm-3,25.71308,R,ugm-3,35.44245,R,ugm-3
12-01-2016,22:00,5.42887,R,ugm-3,24.20078,R,ugm-3,32.52493,R,ugm-3
12-01-2016,23:00,2.82046,R,ugm-3,15.88188,R,ugm-3,20.20652,R,ugm-3
12-01-2016,24:00,2.39731,R,ugm-3,14.47763,R,ugm-3,18.15345,R,ugm-3
13-01-2016,01:00,3.41137,R,ugm-3,14.95511,R,ugm-3,20.18580,R,ugm-3
13-01-2016,02:00,1.98976,R,ugm-3,6.31603,R,ugm-3,9.36695,R,ugm-3
13-01-2016,03:00,2.91369,R,ugm-3,11.65143,R,ugm-3,16.11903,R,ugm-3
13-01-2016,04:00,2.91369,R,ugm-3,16.55317,R,ugm-3,21.02077,R,ugm-3
13-01-2016,05:00,8.31450,R,ugm-3,30.05542,R,ugm-3,42.80414,R,ugm-3
13-01-2016,06:00,12.50761,R,ugm-3,31.03270,R,ugm-3,50.21078,R,ugm-3
13-01-2016,07:00,52.30366,R,ugm-3,73.59300,R,ugm-3,153.79082,R,ugm-3
13-01-2016,08:00,45.69484,R,ugm-3,69.67572,R,ugm-3,139.74016,R,ugm-3
13-01-2016,09:00,51.23784,R,ugm-3,70.10795,R,ugm-3,148.67153,R,ugm-3
13-01-2016,10:00,29.91836,R,ugm-3,55.41851,R,ugm-3,101.29269,R,ugm-3
13-01-2016,11:00,28.07080,R,ugm-3,50.08264,R,ugm-3,93.12393,R,ugm-3
13-01-2016,12:00,38.80132,R,ugm-3,60.42353,R,ugm-3,119.91805,R,ugm-3
13-01-2016,13:00,40.71998,R,ugm-3,61.40177,R,ugm-3,123.83820,R,ugm-3
13-01-2016,14:00,24.87303,R,ugm-3,49.64898,R,ugm-3,87.78710,R,ugm-3
13-01-2016,15:00,27.00467,R,ugm-3,54.98438,R,ugm-3,96.39096,R,ugm-3
13-01-2016,16:00,21.88824,R,ugm-3,56.07737,R,ugm-3,89.63888,R,ugm-3
13-01-2016,17:00,32.33438,R,ugm-3,63.80339,R,ugm-3,113.38208,R,ugm-3
13-01-2016,18:00,15.98945,R,ugm-3,51.39844,R,ugm-3,75.91525,R,ugm-3
13-01-2016,19:00,10.23347,R,ugm-3,43.12353,R,ugm-3,58.81463,R,ugm-3
13-01-2016,20:00,9.02546,R,ugm-3,37.24307,R,ugm-3,51.08192,R,ugm-3
13-01-2016,21:00,7.88824,R,ugm-3,36.26387,R,ugm-3,48.35900,R,ugm-3
13-01-2016,22:00,4.97423,R,ugm-3,28.42453,R,ugm-3,36.05158,R,ugm-3
13-01-2016,23:00,2.70009,R,ugm-3,21.45538,R,ugm-3,25.59547,R,ugm-3
13-01-2016,24:00,2.77150,R,ugm-3,19.05854,R,ugm-3,23.30812,R,ugm-3
14-01-2016,01:00,3.82006,R,ugm-3,20.03790,R,ugm-3,25.89525,R,ugm-3
14-01-2016,02:00,3.07990,R,ugm-3,17.99137,R,ugm-3,22.71381,R,ugm-3
14-01-2016,03:00,4.15413,R,ugm-3,26.43936,R,ugm-3,32.80894,R,ugm-3
14-01-2016,04:00,3.65272,R,ugm-3,24.79413,R,ugm-3,30.39488,R,ugm-3
14-01-2016,05:00,9.31172,R,ugm-3,31.26029,R,ugm-3,45.53806,R,ugm-3
14-01-2016,06:00,26.07200,R,ugm-3,52.30640,R,ugm-3,92.28291,R,ugm-3
14-01-2016,07:00,36.45764,R,ugm-3,62.16868,R,ugm-3,118.06962,R,ugm-3
14-01-2016,08:00,20.55675,R,ugm-3,46.38817,R,ugm-3,77.90808,R,ugm-3
14-01-2016,09:00,18.76625,R,ugm-3,32.34516,R,ugm-3,61.11968,R,ugm-3
14-01-2016,10:00,11.31707,R,ugm-3,32.35520,R,ugm-3,49.70779,R,ugm-3
14-01-2016,11:00,,,,,,,,,
14-01-2016,12:00,3.86757,R,ugm-3,17.77143,R,ugm-3,23.70161,R,ugm-3
14-01-2016,13:00,7.09090,R,ugm-3,24.68081,R,ugm-3,35.55338,R,ugm-3
14-01-2016,14:00,7.73576,R,ugm-3,27.86082,R,ugm-3,39.72215,R,ugm-3
14-01-2016,15:00,7.95060,R,ugm-3,29.06761,R,ugm-3,41.25836,R,ugm-3
14-01-2016,16:00,7.01949,R,ugm-3,30.38532,R,ugm-3,41.14839,R,ugm-3
14-01-2016,17:00,7.09121,R,ugm-3,31.48262,R,ugm-3,42.35566,R,ugm-3
14-01-2016,18:00,6.01635,R,ugm-3,26.87636,R,ugm-3,36.10131,R,ugm-3
14-01-2016,19:00,4.22616,R,ugm-3,24.68320,R,ugm-3,31.16323,R,ugm-3
14-01-2016,20:00,3.15162,R,ugm-3,18.86968,R,ugm-3,23.70209,R,ugm-3
14-01-2016,21:00,2.50676,R,ugm-3,15.13935,R,ugm-3,18.98300,R,ugm-3
14-01-2016,22:00,2.29254,R,ugm-3,12.50536,R,ugm-3,16.02053,R,ugm-3
14-01-2016,23:00,2.29223,R,ugm-3,11.51851,R,ugm-3,15.03321,R,ugm-3
14-01-2016,24:00,2.07738,R,ugm-3,8.44608,R,ugm-3,11.63135,R,ugm-3
15-01-2016,01:00,1.62482,R,ugm-3,6.87671,R,ugm-3,9.36806,R,ugm-3
15-01-2016,02:00,1.64924,R,ugm-3,9.32726,R,ugm-3,11.85607,R,ugm-3
15-01-2016,03:00,1.36236,R,ugm-3,6.80324,R,ugm-3,8.89217,R,ugm-3
15-01-2016,04:00,1.64862,R,ugm-3,8.12048,R,ugm-3,10.64832,R,ugm-3
15-01-2016,05:00,3.79959,R,ugm-3,19.09297,R,ugm-3,24.91892,R,ugm-3
15-01-2016,06:00,7.24058,R,ugm-3,29.84552,R,ugm-3,40.94758,R,ugm-3
15-01-2016,07:00,13.19082,R,ugm-3,41.79864,R,ugm-3,62.02429,R,ugm-3
15-01-2016,08:00,26.23789,R,ugm-3,55.05609,R,ugm-3,95.28697,R,ugm-3
15-01-2016,09:00,32.25954,R,ugm-3,58.44743,R,ugm-3,107.91138,R,ugm-3
15-01-2016,10:00,21.50657,R,ugm-3,40.79410,R,ugm-3,73.77038,R,ugm-3
15-01-2016,11:00,15.91492,R,ugm-3,32.79125,R,ugm-3,57.19379,R,ugm-3
15-01-2016,12:00,14.40943,R,ugm-3,29.72121,R,ugm-3,51.81536,R,ugm-3
15-01-2016,13:00,15.69977,R,ugm-3,32.57274,R,ugm-3,56.64538,R,ugm-3
15-01-2016,14:00,12.54566,R,ugm-3,31.04179,R,ugm-3,50.27819,R,ugm-3
15-01-2016,15:00,15.12663,R,ugm-3,39.92822,R,ugm-3,63.12206,R,ugm-3
15-01-2016,16:00,19.42763,R,ugm-3,50.89832,R,ugm-3,80.68694,R,ugm-3